�������l�o���
Date,Time,MP-1(��Sv/h),MP-2(��Sv/h),MP-3(��Sv/h),MP-4(��Sv/h),MP-5(��Sv/h),MP-6(��Sv/h),MP-7(��Sv/h),MP-8(��Sv/h),����,����(m/s),���J
2019/12/24,00:00,0.702,1.001,0.681,1.264,0.884,0.406,0.709,0.675,�쐼,6.1,�L
2019/12/24,00:10,0.703,1.005,0.681,1.264,0.884,0.406,0.711,0.675,�쐼,8.0,��
2019/12/24,00:20,0.704,1.007,0.679,1.264,0.884,0.407,0.712,0.673,�쐼,7.4,��
2019/12/24,00:30,0.703,1.006,0.678,1.264,0.884,0.405,0.711,0.672,���쐼,5.3,��
2019/12/24,00:40,0.702,1.005,0.680,1.263,0.885,0.406,0.711,0.675,���k��,5.8,��
2019/12/24,00:50,0.703,1.005,0.676,1.265,0.885,0.407,0.711,0.674,���k��,9.9,��
2019/12/24,01:00,0.703,1.003,0.677,1.265,0.884,0.408,0.711,0.675,���k��,11.3,��
2019/12/24,01:10,0.702,1.005,0.678,1.266,0.883,0.406,0.707,0.674,���k��,9.4,��
2019/12/24,01:20,0.704,1.004,0.678,1.264,0.885,0.407,0.710,0.674,���k��,10.1,��
2019/12/24,01:30,0.703,1.005,0.679,1.266,0.884,0.406,0.709,0.674,���k��,10.1,��
2019/12/24,01:40,0.703,1.004,0.677,1.265,0.884,0.405,0.708,0.673,���k��,8.8,��
2019/12/24,01:50,0.703,1.006,0.680,1.267,0.882,0.406,0.708,0.674,�k��,4.7,��
2019/12/24,02:00,0.703,1.005,0.677,1.265,0.885,0.405,0.709,0.673,�k�k��,3.8,��
2019/12/24,02:10,0.703,1.005,0.677,1.266,0.884,0.407,0.709,0.673,�k��,6.3,��
2019/12/24,02:20,0.702,1.006,0.679,1.266,0.884,0.406,0.710,0.673,���k��,8.8,��
2019/12/24,02:30,0.702,1.005,0.678,1.268,0.883,0.406,0.710,0.674,���k��,10.7,��
2019/12/24,02:40,0.702,1.005,0.676,1.268,0.885,0.406,0.710,0.675,���k��,11.6,��
2019/12/24,02:50,0.701,1.005,0.680,1.267,0.882,0.405,0.709,0.673,���k��,11.2,��
2019/12/24,03:00,0.701,1.004,0.678,1.266,0.883,0.404,0.711,0.673,���k��,10.5,��
2019/12/24,03:10,0.701,1.003,0.678,1.267,0.882,0.406,0.712,0.674,���k��,11.2,��
2019/12/24,03:20,0.701,1.008,0.677,1.268,0.885,0.406,0.711,0.672,���k��,9.6,��
2019/12/24,03:30,0.702,1.006,0.678,1.268,0.883,0.406,0.711,0.673,���k��,10.7,��
2019/12/24,03:40,0.701,1.005,0.678,1.267,0.884,0.405,0.710,0.675,�k��,8.3,��
2019/12/24,03:50,0.701,1.007,0.679,1.268,0.886,0.406,0.712,0.674,���k��,10.2,��
2019/12/24,04:00,0.702,1.006,0.679,1.268,0.883,0.404,0.711,0.673,�k��,13.4,��
2019/12/24,04:10,0.701,1.007,0.678,1.267,0.884,0.406,0.712,0.675,�k��,13.0,��
2019/12/24,04:20,0.701,1.010,0.678,1.269,0.885,0.406,0.712,0.675,�k��,11.3,��
2019/12/24,04:30,0.701,1.008,0.678,1.269,0.883,0.407,0.712,0.676,�k��,11.1,��
2019/12/24,04:40,0.701,1.007,0.678,1.270,0.884,0.405,0.712,0.674,���k��,7.7,��
2019/12/24,04:50,0.702,1.006,0.678,1.269,0.884,0.407,0.710,0.674,�k��,6.3,��
2019/12/24,05:00,0.701,1.011,0.678,1.268,0.884,0.406,0.710,0.673,�k��,8.6,��
2019/12/24,05:10,0.699,1.010,0.678,1.270,0.885,0.405,0.711,0.674,�k��,6.3,��
2019/12/24,05:20,0.702,1.007,0.678,1.271,0.883,0.405,0.712,0.673,�k��,5.8,��
2019/12/24,05:30,0.700,1.010,0.677,1.268,0.883,0.405,0.711,0.675,�k��,6.0,��
2019/12/24,05:40,0.701,1.009,0.678,1.268,0.885,0.406,0.711,0.673,�k��,4.0,��
2019/12/24,05:50,0.700,1.007,0.675,1.268,0.884,0.404,0.709,0.672,�k��,4.9,��
2019/12/24,06:00,0.698,1.008,0.678,1.268,0.886,0.405,0.710,0.673,�k��,3.4,��
2019/12/24,06:10,0.699,1.007,0.676,1.268,0.885,0.405,0.711,0.674,�k�k��,5.5,��
2019/12/24,06:20,0.700,1.007,0.677,1.270,0.885,0.404,0.709,0.673,�k�k��,7.7,��
2019/12/24,06:30,0.701,1.008,0.677,1.269,0.886,0.405,0.710,0.674,�k�k��,7.2,��
2019/12/24,06:40,0.699,1.007,0.678,1.266,0.884,0.404,0.710,0.674,�k��,6.1,��
2019/12/24,06:50,0.701,1.006,0.678,1.265,0.883,0.403,0.711,0.672,�k��,4.9,��
2019/12/24,07:00,0.699,1.005,0.678,1.270,0.886,0.405,0.708,0.673,���k��,3.8,��
2019/12/24,07:10,0.701,1.006,0.677,1.267,0.886,0.404,0.709,0.674,���k��,2.5,��
2019/12/24,07:20,0.701,1.008,0.676,1.270,0.882,0.404,0.709,0.673,�k�k��,2.7,��
2019/12/24,07:30,0.700,1.006,0.678,1.268,0.883,0.403,0.711,0.675,�k�k��,3.0,��
2019/12/24,07:40,0.700,1.005,0.677,1.269,0.883,0.403,0.710,0.673,�k,3.3,��
2019/12/24,07:50,0.700,1.008,0.675,1.266,0.884,0.403,0.709,0.674,�k�k��,2.5,��
2019/12/24,08:00,0.699,1.005,0.678,1.269,0.885,0.404,0.709,0.673,�k�k��,4.1,��
2019/12/24,08:10,0.701,1.007,0.676,1.268,0.882,0.404,0.711,0.674,�k�k��,4.4,��
2019/12/24,08:20,0.701,1.004,0.676,1.269,0.883,0.404,0.711,0.672,�k�k��,5.2,��
2019/12/24,08:30,0.699,1.007,0.679,1.267,0.884,0.404,0.709,0.674,�k��,3.5,��
2019/12/24,08:40,0.699,1.007,0.676,1.270,0.886,0.404,0.710,0.674,�k��,2.4,��
2019/12/24,08:50,0.702,1.005,0.675,1.271,0.882,0.404,0.710,0.674,�k��,2.5,��
2019/12/24,09:00,0.701,1.005,0.677,1.269,0.882,0.403,0.712,0.673,���k��,5.2,��
2019/12/24,09:10,0.702,1.009,0.677,1.270,0.885,0.404,0.710,0.674,�k�k��,3.5,��
2019/12/24,09:20,0.702,1.005,0.676,1.268,0.884,0.403,0.712,0.673,�k��,4.7,��
2019/12/24,09:30,0.699,1.007,0.677,1.268,0.883,0.404,0.712,0.674,�k��,4.9,��
2019/12/24,09:40,0.701,1.006,0.678,1.269,0.884,0.405,0.711,0.675,�k��,3.9,��
2019/12/24,09:50,0.702,1.003,0.676,1.268,0.884,0.403,0.711,0.675,�k��,4.2,��
2019/12/24,10:00,0.701,1.005,0.677,1.269,0.885,0.398,0.710,0.673,���k��,6.9,��
2019/12/24,10:10,0.700,1.004,0.676,1.268,0.886,0.395,0.711,0.674,���k��,5.8,��
2019/12/24,10:20,0.700,1.004,0.676,1.270,0.886,0.401,0.710,0.673,�쐼,1.9,��
2019/12/24,10:30,0.701,1.004,0.677,1.269,0.884,0.403,0.711,0.674,�쐼,2.2,��
2019/12/24,10:40,0.701,1.004,0.676,1.271,0.886,0.403,0.711,0.674,���쐼,3.6,��
2019/12/24,10:50,0.703,1.005,0.678,1.271,0.887,0.401,0.710,0.676,�k��,4.9,��
2019/12/24,11:00,0.702,1.006,0.676,1.271,0.887,0.403,0.712,0.673,�k��,5.8,��
2019/12/24,11:10,0.702,1.006,0.674,1.273,0.889,0.403,0.710,0.674,�k��,5.6,��
2019/12/24,11:20,0.703,1.005,0.677,1.271,0.888,0.402,0.710,0.674,�k��,6.9,��
2019/12/24,11:30,0.700,1.006,0.677,1.272,0.886,0.403,0.710,0.673,�k��,6.3,��
2019/12/24,11:40,0.703,1.006,0.675,1.271,0.887,0.403,0.712,0.676,�k��,6.9,��
2019/12/24,11:50,0.704,1.007,0.675,1.272,0.886,0.403,0.711,0.676,�k��,8.2,��
2019/12/24,12:00,0.703,1.007,0.677,1.273,0.889,0.403,0.711,0.676,�k��,6.3,��
2019/12/24,12:10,0.703,1.010,0.678,1.273,0.889,0.403,0.712,0.675,�k��,7.1,��
2019/12/24,12:20,0.702,1.009,0.675,1.274,0.890,0.403,0.711,0.675,�k��,6.9,��
2019/12/24,12:30,0.704,1.010,0.680,1.271,0.890,0.404,0.710,0.675,�k��,6.7,��
2019/12/24,12:40,0.705,1.010,0.678,1.274,0.891,0.404,0.710,0.675,�k��,7.4,��
2019/12/24,12:50,0.702,1.009,0.681,1.273,0.889,0.403,0.711,0.675,�k��,5.8,��
2019/12/24,13:00,0.703,1.011,0.680,1.273,0.889,0.404,0.709,0.676,�k��,4.9,��
2019/12/24,13:10,0.705,1.011,0.678,1.274,0.888,0.403,0.708,0.676,�k��,6.7,��
2019/12/24,13:20,0.704,1.011,0.676,1.273,0.887,0.403,0.710,0.674,�k��,7.1,��
2019/12/24,13:30,0.704,1.013,0.677,1.272,0.890,0.404,0.711,0.674,�k��,5.5,��
2019/12/24,13:40,0.703,1.012,0.675,1.273,0.892,0.403,0.710,0.674,�k��,5.6,��
2019/12/24,13:50,0.703,1.012,0.677,1.274,0.889,0.405,0.711,0.674,�k��,6.9,��
2019/12/24,14:00,0.703,1.012,0.676,1.276,0.889,0.401,0.710,0.674,�k�k��,6.3,��
2019/12/24,14:10,0.702,1.012,0.678,1.273,0.888,0.403,0.710,0.673,�k��,7.8,��
2019/12/24,14:20,0.703,1.011,0.675,1.275,0.890,0.403,0.711,0.673,�k�k��,5.3,��
2019/12/24,14:30,0.702,1.010,0.677,1.274,0.891,0.402,0.711,0.673,�k��,8.2,��
2019/12/24,14:40,0.704,1.012,0.678,1.274,0.892,0.402,0.711,0.674,�k��,6.7,��
2019/12/24,14:50,0.704,1.012,0.680,1.274,0.891,0.402,0.709,0.676,�k��,6.9,��
2019/12/24,15:00,0.704,1.011,0.681,1.273,0.891,0.402,0.710,0.675,�k��,6.9,��
2019/12/24,15:10,0.707,1.014,0.681,1.274,0.890,0.403,0.710,0.676,�k��,5.0,��
2019/12/24,15:20,0.705,1.014,0.681,1.275,0.890,0.403,0.711,0.674,�k��,2.8,��
2019/12/24,15:30,0.704,1.015,0.681,1.279,0.891,0.403,0.709,0.674,�k��,4.9,��
2019/12/24,15:40,0.702,1.012,0.681,1.274,0.892,0.402,0.710,0.674,�k��,5.8,��
2019/12/24,15:50,0.703,1.014,0.679,1.275,0.891,0.401,0.710,0.674,�k��,6.3,��
2019/12/24,16:00,0.702,1.014,0.680,1.275,0.890,0.404,0.709,0.675,�k�k��,5.8,��
2019/12/24,16:10,0.703,1.012,0.682,1.275,0.890,0.402,0.709,0.674,�k�k��,6.0,��
2019/12/24,16:20,0.701,1.014,0.679,1.274,0.890,0.402,0.711,0.675,�k�k��,5.6,��
2019/12/24,16:30,0.700,1.013,0.680,1.274,0.890,0.401,0.711,0.675,�k�k��,5.8,��
2019/12/24,16:40,0.701,1.015,0.680,1.273,0.888,0.402,0.711,0.675,�k�k��,5.3,��
2019/12/24,16:50,0.703,1.013,0.680,1.274,0.890,0.403,0.710,0.674,�k�k��,5.5,��
2019/12/24,17:00,0.701,1.014,0.680,1.274,0.890,0.403,0.710,0.675,�k�k��,4.9,��
2019/12/24,17:10,0.700,1.013,0.680,1.274,0.890,0.402,0.711,0.674,�k�k��,6.3,��
2019/12/24,17:20,0.703,1.013,0.680,1.272,0.890,0.402,0.712,0.675,�k�k��,7.1,��
2019/12/24,17:30,0.701,1.015,0.681,1.275,0.891,0.402,0.711,0.674,�k�k��,6.1,��
2019/12/24,17:40,0.701,1.013,0.681,1.276,0.889,0.401,0.711,0.675,�k�k��,6.9,��
2019/12/24,17:50,0.702,1.016,0.681,1.275,0.892,0.402,0.711,0.675,�k�k��,5.0,��
2019/12/24,18:00,0.699,1.013,0.681,1.273,0.890,0.402,0.710,0.674,�k��,4.2,��
2019/12/24,18:10,0.701,1.015,0.680,1.275,0.889,0.403,0.711,0.675,���k��,1.2,��
2019/12/24,18:20,0.702,1.012,0.680,1.276,0.889,0.402,0.710,0.674,��,2.3,��
2019/12/24,18:30,0.699,1.013,0.681,1.275,0.890,0.401,0.710,0.673,-,CALM,��
2019/12/24,18:40,0.702,1.014,0.680,1.276,0.891,0.402,0.710,0.676,��쓌,0.5,��
2019/12/24,18:50,0.700,1.013,0.680,1.272,0.891,0.402,0.708,0.674,-,CALM,��
2019/12/24,19:00,0.700,1.012,0.680,1.275,0.890,0.403,0.709,0.675,�쓌,0.7,��
2019/12/24,19:10,0.701,1.012,0.681,1.276,0.890,0.401,0.710,0.676,�쓌,1.6,��
2019/12/24,19:20,0.702,1.011,0.679,1.276,0.890,0.401,0.709,0.674,-,CALM,��
2019/12/24,19:30,0.701,1.012,0.681,1.276,0.889,0.401,0.709,0.674,�쐼,1.1,��
2019/12/24,19:40,0.700,1.011,0.679,1.276,0.891,0.401,0.708,0.676,�쐼,2.7,��
2019/12/24,19:50,0.700,1.011,0.680,1.276,0.890,0.402,0.708,0.674,�쐼,1.8,��
2019/12/24,20:00,0.701,1.013,0.681,1.274,0.890,0.401,0.709,0.673,�쐼,1.6,��
2019/12/24,20:10,0.700,1.011,0.681,1.277,0.891,0.402,0.709,0.674,���쐼,2.8,��
2019/12/24,20:20,0.699,1.012,0.680,1.275,0.891,0.400,0.709,0.674,���쐼,3.0,��
2019/12/24,20:30,0.699,1.011,0.680,1.273,0.889,0.402,0.709,0.675,���쐼,4.2,��
2019/12/24,20:40,0.701,1.013,0.680,1.275,0.889,0.403,0.709,0.672,���쐼,4.2,��
2019/12/24,20:50,0.700,1.011,0.679,1.275,0.889,0.401,0.710,0.673,���쐼,3.9,��
2019/12/24,21:00,0.701,1.013,0.680,1.276,0.889,0.401,0.709,0.673,���쐼,4.2,��
2019/12/24,21:10,0.698,1.012,0.680,1.274,0.889,0.401,0.709,0.674,���쐼,4.6,��
2019/12/24,21:20,0.701,1.011,0.678,1.275,0.890,0.402,0.708,0.675,���쐼,3.6,��
2019/12/24,21:30,0.700,1.012,0.679,1.275,0.890,0.403,0.710,0.674,���쐼,3.8,��
2019/12/24,21:40,0.699,1.013,0.679,1.274,0.889,0.401,0.708,0.674,��,3.9,��
2019/12/24,21:50,0.700,1.010,0.679,1.273,0.890,0.402,0.708,0.675,���쐼,3.5,��
2019/12/24,22:00,0.699,1.010,0.679,1.274,0.891,0.402,0.710,0.673,���쐼,4.3,��
2019/12/24,22:10,0.699,1.011,0.679,1.274,0.888,0.401,0.708,0.674,���쐼,4.3,��
2019/12/24,22:20,0.701,1.010,0.679,1.276,0.888,0.401,0.706,0.676,���쐼,4.2,��
2019/12/24,22:30,0.700,1.010,0.678,1.274,0.889,0.401,0.708,0.674,���쐼,4.5,��
2019/12/24,22:40,0.699,1.011,0.679,1.276,0.889,0.403,0.709,0.673,���쐼,5.2,��
2019/12/24,22:50,0.700,1.011,0.679,1.274,0.890,0.402,0.709,0.675,���쐼,4.9,��
2019/12/24,23:00,0.698,1.011,0.681,1.274,0.887,0.402,0.710,0.674,���쐼,4.2,��
2019/12/24,23:10,0.700,1.011,0.679,1.275,0.889,0.402,0.710,0.673,���쐼,4.7,��
2019/12/24,23:20,0.700,1.012,0.680,1.276,0.888,0.401,0.708,0.673,���쐼,5.2,��
2019/12/24,23:30,0.701,1.011,0.679,1.274,0.888,0.403,0.709,0.673,���쐼,5.6,��
2019/12/24,23:40,0.701,1.012,0.681,1.275,0.887,0.401,0.709,0.674,���쐼,6.1,��
2019/12/24,23:50,0.699,1.011,0.680,1.275,0.887,0.401,0.709,0.674,���쐼,5.8,��
